Hettinger, ND

4:43 AM MDT on May 30, 2017 (GMT -0600)
Hettinger Municipal

Weather History for KHEI - September, 2012

Change the Weather History Date:

Wednesday, September 12, 2012

  Actual Average Record
Temperature  
Mean Temperature 49 °F -  
Max Temperature 71 °F 74 °F 93 °F (2004)
Min Temperature 27 °F 43 °F 25 °F (2014)
Degree Days  
Heating Degree Days 16 8  
Month to date heating degree days 67 70  
Since 1 July heating degree days 122 160  
Cooling Degree Days 0 1  
Month to date cooling degree days 30 20  
Year to date cooling degree days 578 369  
Moisture  
Dew Point 19 °F    
Average Humidity 36    
Maximum Humidity 69    
Minimum Humidity 10    
Precipitation  
Precipitation 0.00 in 0.06 in 0.48 in (2005)
Month to date precipitation 0.02 0.73  
Year to date precipitation 13.78 13.02  
Sea Level Pressure  
Sea Level Pressure 30.26 in    
Wind  
Wind Speed 6 mph (WNW)    
Max Wind Speed 18 mph    
Max Gust Speed 24 mph    
Visibility 10 miles    
Events      
T = Trace of Precipitation, MM = Missing Value Source: NWS Daily Summary

Daily Weather History Graph

Daily Weather History Graph

Search for Another Location

Airport or City:

Trip Planner

Search our weather history database for the weather conditions in past years. The results will help you decide how hot, cold, wet, or windy it might be!

Date:

Astronomy

Sep. 12, 2012 Rise Set
Actual Time 6:25 AM MDT 7:06 PM MDT
Civil Twilight 5:55 AM MDT 7:36 PM MDT
Nautical Twilight 5:19 AM MDT 8:12 PM MDT
Astronomical Twilight 4:42 AM MDT 8:49 PM MDT
Moon 2:35 AM MDT (9/12) 5:03 PM MDT (9/12)
Length of Visible Light 13h 41m
Length of Day
12h 41m
Waning Crescent, 13% of the Moon is Illuminated
Sep 12
Waning Crescent
Sep 15
New
Sep 22
First Quarter
Sep 29
Full
Oct 8
Last Quarter

Hourly Weather History & Observations

Time (MDT) Temp. Windchill Dew Point Humidity Pressure Visibility Wind Dir Wind Speed Gust Speed Precip Events Conditions
12:53 AM 44.1 °F - 26.1 °F 49% 30.13 in 10.0 mi Calm Calm - N/A   Clear
1:53 AM 39.0 °F 36.8 °F 25.0 °F 57% 30.15 in 10.0 mi West 3.5 mph - N/A   Clear
2:53 AM 37.9 °F - 25.0 °F 60% 30.16 in 10.0 mi Calm Calm - N/A   Clear
3:53 AM 39.0 °F 35.7 °F 23.0 °F 53% 30.16 in 10.0 mi NW 4.6 mph - N/A   Clear
4:53 AM 33.1 °F 30.0 °F 21.9 °F 64% 30.18 in 10.0 mi WNW 3.5 mph - N/A   Clear
5:53 AM 33.1 °F - 21.9 °F 64% 30.20 in 10.0 mi Calm Calm - N/A   Clear
6:53 AM 30.9 °F 26.2 °F 21.0 °F 67% 30.25 in 10.0 mi NW 4.6 mph - N/A   Clear
7:53 AM 43.0 °F 40.3 °F 25.0 °F 49% 30.27 in 10.0 mi NW 4.6 mph - N/A   Clear
8:53 AM 55.0 °F - 23.0 °F 29% 30.27 in 10.0 mi WNW 5.8 mph - N/A   Clear
9:53 AM 61.0 °F - 18.0 °F 19% 30.29 in 10.0 mi NW 8.1 mph - N/A   Clear
10:53 AM 64.9 °F - 16.0 °F 15% 30.29 in 10.0 mi West 10.4 mph - N/A   Clear
11:53 AM 66.9 °F - 15.1 °F 14% 30.29 in 10.0 mi NW 15.0 mph 18.4 mph N/A   Clear
12:53 PM 69.1 °F - 14.0 °F 12% 30.27 in 10.0 mi WNW 12.7 mph 18.4 mph N/A   Clear
1:53 PM 68.0 °F - 12.9 °F 12% 30.27 in 10.0 mi West 8.1 mph 17.3 mph N/A   Clear
3:53 PM 68.0 °F - 10.9 °F 11% 30.26 in 10.0 mi West 5.8 mph - N/A   Clear
4:53 PM 69.1 °F - 10.9 °F 11% 30.27 in 10.0 mi West 11.5 mph - N/A   Clear
5:53 PM 66.9 °F - 12.0 °F 12% 30.28 in 10.0 mi WNW 11.5 mph - N/A   Clear
6:53 PM 59.0 °F - 15.1 °F 18% 30.31 in 10.0 mi NW 6.9 mph - N/A   Clear
7:53 PM 48.0 °F - 17.1 °F 29% 30.32 in 10.0 mi Calm Calm - N/A   Clear
8:53 PM 39.0 °F 36.8 °F 17.1 °F 41% 30.34 in 10.0 mi WNW 3.5 mph - N/A   Clear
9:53 PM 39.9 °F 36.7 °F 18.0 °F 41% 30.34 in 10.0 mi WNW 4.6 mph - N/A   Clear
10:53 PM 39.0 °F 36.8 °F 18.0 °F 43% 30.35 in 10.0 mi SW 3.5 mph - N/A   Clear
11:53 PM 37.0 °F 33.3 °F 19.0 °F 48% 30.35 in 10.0 mi NW 4.6 mph - N/A   Clear